Tracking 18980 objects as of 19-Feb-2018
HD Live streaming from Space Station
objects crossing your sky now

FENGYUN 1C DEB

Track FENGYUN 1C DEB now!
10-day predictions


NORAD ID: 37703
Int'l Code: 1999-025ELU
Perigee: 781.2 km
Apogee: 855.5 km
Inclination: 99.1 °
Period: 101.1 minutes
Semi major axis: 7189 km
RCS: 0.0122 m2 (small)
Launch date: May 10, 1999
Source: People's Republic of China (PRC)
Launch site: Taiyaun Space Center, China (TSC)

Note: This is SATELLITE DEBRIS
aabbcc
Your satellite tracking list
Your tracking list is empty




NASA's NSSDC Master Catalog

Two Line Element Set (TLE):
1 37703U 99025ELU 18045.26902844  .00000804  00000-0  36473-3 0  9996
2 37703  99.1304 200.7414 0051733 298.2091 183.5503 14.24192281470073
Source of the keplerian elements: AFSPC